Location: Fleischmann Planetarium and Science Center
(39.5456°N, 119.8190°W)
Time: 05:54:40
(UTC-07:00)

Daily predictions for brighter satellites

Satellite Brightness Start Highest point End
(mag) Time Altitude Azimuth Time Altitude Azimuth Time Altitude Azimuth
Iridium 4 Rocket 3.8 00:03:33 10° N 00:09:10 81° NE 00:09:10 81° NE
USA 229 DEB 3.7 00:03:02 10° NW 00:10:07 73° WSW 00:10:39 70° SSW
USA 229 3.6 00:03:07 10° NW 00:10:14 74° WSW 00:10:45 71° SSW
Cosmos 2123 Rocket 4.1 00:11:05 10° N 00:17:17 63° ENE 00:17:17 63° ENE
Cosmos 1486 Rocket 4.3 00:12:45 10° NNW 00:17:20 66° N 00:17:20 66° N
ALOS 2 3.8 00:22:19 40° N 00:22:19 40° N 00:25:12 10° N
Cosmos 1934 Rocket 3.8 00:21:23 82° NE 00:21:23 82° NE 00:27:13 10° N
Cosmos 2369 Rocket 3.2 00:25:03 36° ENE 00:25:03 36° ENE 00:28:49 10° NE
H-2A R/B 4.0 00:20:21 10° NNE 00:23:09 36° NNE 00:23:09 36° NNE
Lacrosse 5 3.3 00:45:31 31° NE 00:45:31 31° NE 00:48:12 10° NE
Meteor 2-16 Rocket 4.5 00:44:27 71° WNW 00:44:27 71° WNW 00:50:24 10° N
CZ-2C R/B 3.5 00:44:35 10° NNE 00:48:23 42° NE 00:48:23 42° NE
ATLAS 2AS CENTAUR R/B 4.4 00:42:34 10° NNW 00:49:46 33° NE 00:55:56 13° E
CZ-2C R/B 3.9 01:00:52 41° NE 01:00:52 41° NE 01:04:57 10° N
NOSS 3-1 (C) 3.9 00:53:28 10° NW 01:01:09 87° WSW 01:02:09 72° SSE
Cosmos 1447 Rocket 4.5 01:07:54 10° N 01:13:40 76° NW 01:13:40 76° NW
Cosmos 1943 Rocket 3.0 01:15:38 41° ENE 01:15:38 41° ENE 01:19:42 10° NE
Cosmos 2263 4.4 01:22:08 66° N 01:22:08 66° N 01:27:00 10° NNE
Cosmos 2100 Rocket 4.0 01:21:57 78° ENE 01:21:57 78° ENE 01:28:10 10° N
Cosmos 2061 Rocket 4.0 01:25:21 76° E 01:25:21 76° E 01:31:41 10° N
Cosmos 1802 Rocket 3.9 01:43:30 86° N 01:43:30 86° N 01:49:38 10° N
Cosmos 1833 4.4 01:37:44 10° NNW 01:43:01 67° NE 01:43:01 67° NE
Cosmos 2016 Rocket 3.9 01:46:08 80° ENE 01:46:08 80° ENE 01:52:07 10° N
Cosmos 2098 Rocket 4.5 01:46:13 50° ESE 01:46:49 52° E 01:53:50 10° NNE
Cosmos 1459 Rocket 4.0 01:49:33 67° WNW 01:49:33 67° WNW 01:55:28 10° N
Cosmos 1818 3.8 01:52:44 67° N 01:52:44 67° N 01:57:34 10° NNE
SeaSat 1 2.9 01:53:08 60° NNE 01:53:08 60° NNE 01:57:21 10° NNW
BREEZE-M DEB (TANK) 4.1 01:48:29 10° NW 01:52:44 70° NNE 02:10:25 10° ESE
ISS 0.2 01:54:25 10° NNW 01:54:59 10° N 01:55:33 10° N
Cosmos 968 Rocket 3.7 01:59:19 10° NNW 02:03:49 65° N 02:03:49 65° N
Cosmos 1864 Rocket 4.4 02:05:12 73° ESE 02:05:31 75° E 02:11:46 10° N
Cosmos 2173 Rocket 4.3 02:05:26 52° W 02:05:31 52° W 02:11:42 10° N
Cosmos 2369 Rocket 3.7 02:06:49 25° WNW 02:07:41 26° NW 02:12:20 10° N
Cosmos 2219 3.4 02:07:26 10° NNW 02:13:01 62° ENE 02:13:38 58° E
Lacrosse 5 rocket 3.7 02:13:46 16° NNW 02:13:46 16° NNW 02:16:06 10° N
NOSS 3-3 (A) 4.0 02:18:32 64° SE 02:18:47 64° ESE 02:25:20 10° NE
NOSS 3-3 (C) 4.0 02:18:38 63° SE 02:18:53 64° ESE 02:25:25 10° NE
Cosmos 1725 Rocket 3.8 02:19:06 80° SW 02:19:24 84° W 02:25:37 10° N
Cosmos 2227 Rocket 4.4 02:16:52 10° N 02:21:08 21° NE 02:25:23 10° ESE
Tsikada Rocket 3.8 02:18:48 10° N 02:25:07 84° W 02:25:40 75° SSW
Cosmos 1816 Rocket 4.5 02:19:15 10° N 02:25:33 77° E 02:26:31 64° SE
Lacrosse 5 3.7 02:24:40 20° WNW 02:26:32 25° NNW 02:30:42 10° NNE
Cosmos 1666 4.2 02:30:17 36° NNE 02:30:17 36° NNE 02:32:39 10° NNE
CZ-2C R/B 4.4 02:25:56 10° NNW 02:29:35 19° WNW 02:29:54 19° WNW
PSLV R/B 4.2 02:28:46 10° N 02:32:18 53° NNW 02:32:18 53° NNW
Cosmos 1777 Rocket 3.9 02:28:58 10° NNW 02:33:56 81° NNW 02:33:56 81° NNW
CBERS-1 4.4 02:33:03 10° NNE 02:38:05 53° E 02:38:23 53° ESE
ATLAS CENTAUR R/B 4.2 02:40:19 12° ESE 02:41:01 13° ESE 02:43:12 10° E
ATLAS 2AS CENTAUR R/B 2.9 02:33:25 10° NW 02:41:26 68° WSW 02:43:17 52° S
IRS-P3 4.0 02:36:26 10° NNE 02:41:49 83° ESE 02:42:06 79° SSE
BREEZE-M DEB (TANK) 3.4 02:43:04 63° NNW 02:43:04 63° NNW 02:46:18 10° NE
Cosmos 2297 Rocket 4.4 02:38:52 10° N 02:43:16 23° NE 02:47:38 10° ESE
Cosmos 2228 3.3 02:49:49 63° N 02:49:49 63° N 02:53:28 10° N
IRAS Rocket 4.3 02:47:32 10° NNE 02:53:09 71° ESE 02:54:07 58° SSE
Cosmos 1656 Rocket 4.1 02:56:16 46° W 02:56:59 48° WNW 03:02:27 10° NNE
Cosmos 1943 Rocket 3.7 02:57:08 22° WNW 02:58:20 24° NW 03:02:49 10° N
Cosmos 2058 Rocket 4.0 03:02:17 37° NW 03:02:17 37° NW 03:05:48 10° N
NPP 3.5 02:57:08 10° N 03:02:32 76° WNW 03:03:14 65° SW
Cosmos 44 Rocket 4.0 03:00:58 10° NW 03:04:41 42° WNW 03:04:41 42° WNW
Cosmos 1812 Rocket 3.7 03:07:09 64° ESE 03:07:29 67° E 03:11:56 10° NNE
Milstar 3 Cent rocket 3.9 03:08:38 20° SE 03:08:38 20° SE 03:12:28 10° ESE
AQUA 3.6 03:03:21 10° N 03:08:07 78° WNW 03:08:24 74° WSW
SL-8 R/B 3.6 03:03:41 10° WNW 03:08:30 83° NNE 03:13:17 10° ESE
Resurs 1-4 Rocket 3.2 03:10:57 10° NNE 03:15:50 37° E 03:18:17 24° SSE
Cosmos 1707 4.0 03:12:33 10° N 03:16:15 38° ENE 03:17:28 30° ESE
GENESIS II 4.3 03:17:34 75° NW 03:17:34 75° NW 03:21:35 10° NNE
ERS-2 2.3 03:14:54 10° NNE 03:18:17 72° N 03:18:17 72° N
Cosmos 1464 Rocket 3.9 03:19:51 41° S 03:22:12 86° E 03:28:33 10° N
SL-08 R/B 3.9 03:30:33 39° W 03:30:33 39° W 03:34:40 10° NNW
Cosmos 1898 Rocket 3.9 03:26:08 10° NNW 03:31:27 62° ENE 03:36:43 10° SSE
ADEOS 3.5 03:26:32 10° N 03:31:45 73° WNW 03:33:11 48° SW
Okean 3 Rocket 4.0 03:28:10 10° N 03:32:32 58° E 03:34:38 28° SSE
ISS -0.1 03:30:47 10° NNW 03:32:33 14° NNE 03:34:19 10° NE
GPS 2-04 Rocket1 4.3 03:35:57 22° SE 03:35:57 22° SE 03:38:01 10° ESE
NOSS 2-1 (D) 3.4 03:36:42 56° SSE 03:37:15 63° ESE 03:41:30 10° NE
Meteor 2-5 Rocket 3.7 03:32:18 10° N 03:38:10 87° W 03:41:39 26° S
NOSS 2-1 (C) 3.4 03:37:59 55° SSE 03:38:35 63° ESE 03:42:50 10° NE
ASTRO E2 4.5 03:42:58 20° SE 03:42:58 20° SE 03:44:49 10° ESE
Uosat 12 SS-18 rocket 4.4 03:40:41 10° NW 03:45:24 65° WSW 03:51:03 10° SSE
OAO 3 Rocket 4.4 03:47:14 25° SSE 03:47:14 25° SSE 03:49:43 10° SE
Cosmos 1656 4.1 03:43:48 28° S 03:46:42 59° ESE 03:52:17 10° NNE
Cosmos 1937 Rocket 3.9 03:43:58 10° NNW 03:49:06 63° ENE 03:54:15 10° SSE
Cosmos 972 Rocket 4.3 03:47:09 10° NNW 03:51:50 44° W 03:52:59 37° SW
Cosmos 2082 3.6 03:46:30 10° NNW 03:52:10 80° WSW 03:57:45 10° SSE
NOSS 2-1 (E) 3.3 03:52:35 49° SSW 03:53:37 86° ESE 03:58:03 10° NE
ARIANE 5 R/B 2.5 03:48:35 10° N 03:53:41 73° WNW 03:55:57 34° SSW
Cosmos 1513 Rocket 4.5 03:51:50 32° SSW 03:54:40 65° W 04:00:43 10° N
Cosmos 1697 Rocket 3.3 03:52:12 21° S 03:55:44 51° ESE 04:01:13 10° NNE
SME Rocket 3.9 03:53:50 24° S 03:57:06 70° WSW 04:04:39 10° NNW
Cosmos 1763 Rocket 4.1 03:54:40 21° S 03:58:01 52° ESE 04:03:04 10° NNE
Cosmos 44 3.8 03:53:34 10° NW 03:58:19 39° WSW 03:59:09 36° SW
USA 161 3.1 03:59:39 25° NW 03:59:39 25° NW 04:01:16 10° NNW
Cosmos 1980 Rocket 3.5 03:57:47 12° SSE 04:02:28 34° ESE 04:07:31 10° NE
CZ-2D R/B 2.1 03:57:28 10° N 04:02:57 82° WNW 04:06:09 26° SSW
Meteor 2-12 Rocket 4.4 03:59:28 22° S 04:03:34 89° E 04:09:39 10° N
NOSS 3-4 (A) 4.2 03:57:03 10° NNW 04:04:02 68° NE 04:11:24 10° SE
NOSS 3-4 (C) 4.2 03:57:09 10° NNW 04:04:10 67° NE 04:11:34 10° SE
CZ-2D R/B 4.1 04:00:50 10° NNE 04:05:05 57° E 04:08:07 19° S
Cosmos 2227 Rocket 2.2 04:00:01 10° NNW 04:05:35 58° WSW 04:10:49 11° S
Cosmos 1766 3.3 04:04:50 30° S 04:06:46 82° E 04:10:44 10° N
MOS 1-B 4.3 04:04:02 10° NNE 04:09:53 89° WNW 04:14:03 20° SSW
SL-16 R/B 2.5 04:06:09 15° S 04:11:12 60° WSW 04:17:20 10° NNW
Okean O Rocket 2.5 04:07:33 10° NNE 04:11:47 45° E 04:15:43 12° S
Cosmos 405 Rocket 3.5 04:08:34 10° NNW 04:12:17 35° W 04:13:02 32° WSW
IRS-1D 3.8 04:09:03 10° N 04:13:50 50° WNW 04:16:19 26° SW
Cosmos 2298 Rocket 4.3 04:09:38 10° NNW 04:14:41 46° WSW 04:18:18 18° SSW
Cosmos 2369 4.3 04:15:13 24° WSW 04:18:09 42° WNW 04:23:31 10° N
UNKNOWN OBJECT B 2.7 04:14:23 10° N 04:18:19 72° WNW 04:20:19 27° SSW
Cosmos 1953 3.0 04:15:40 12° SSE 04:19:10 52° E 04:23:08 10° NNE
ATLAS CENTAUR R/B 1.8 04:16:40 26° SW 04:19:30 79° WNW 04:24:33 10° NNE
UNK 4.1 04:17:52 23° SSW 04:20:29 46° W 04:25:00 10° NNW
Cosmos 2034 Rocket 4.5 04:17:29 23° SW 04:20:57 43° WNW 04:26:52 10° N
Cosmos 1814 Rocket 4.5 04:23:08 23° SW 04:26:09 48° WNW 04:31:21 10° N
Cosmos 2297 Rocket 2.3 04:22:08 10° NNW 04:27:38 54° WSW 04:33:06 10° S
IRS-1C Rocket 4.2 04:22:44 10° NNE 04:28:01 77° ESE 04:33:06 11° S
EO 1 Del DPAF 3.9 04:28:31 24° SSW 04:30:16 36° W 04:33:53 10° NNW
NOSS 7 (D) 4.3 04:28:34 26° SW 04:30:22 86° WNW 04:33:45 10° NNE
Cosmos 1076 Rocket 3.5 04:27:51 10° NNW 04:32:09 64° W 04:36:23 10° S
ADEOS II 4.3 04:28:01 10° NE 04:32:09 23° E 04:36:16 10° SE
EP 2 4.4 04:32:56 33° WSW 04:33:51 58° NW 04:36:37 10° NNE
Meteor 1-24 Rocket 4.1 04:30:39 10° NNW 04:36:04 48° W 04:41:39 10° SSW
GEOS 3 Rocket 4.3 04:31:34 10° S 04:36:10 31° WSW 04:40:46 10° NW
Nadezhda 4 Rocket 4.3 04:34:17 10° NNW 04:40:09 47° W 04:46:02 10° SSW
SL-16 R/B 4.1 04:37:34 10° SSE 04:42:13 27° ESE 04:46:52 10° NE
CZ-2C R/B 3.7 04:38:03 10° S 04:42:47 81° WSW 04:47:29 10° NNW
Cosmos 1805 3.2 04:39:50 11° S 04:43:34 86° WNW 04:47:30 10° N
PAYLOAD B 4.3 04:38:15 10° NNE 04:43:54 83° ESE 04:49:29 10° SSW
Cosmos 1378 3.7 04:41:35 10° NNW 04:45:08 39° W 04:48:15 13° SSW
Cosmos 1766 Rocket 3.8 04:42:04 10° NNW 04:46:21 51° W 04:50:37 10° SSW
Cosmos 1408 Rocket 3.9 04:42:21 10° NNW 04:46:32 46° W 04:50:44 10° SSW
Okean-O 4.0 04:45:27 10° NNE 04:49:37 38° E 04:53:44 10° SSE
EP 1 4.1 04:50:33 20° SW 04:52:06 72° NW 04:54:41 10° NNE
Cosmos 1441 Rocket 3.7 04:48:46 10° NNW 04:52:33 42° W 04:56:19 10° SSW
Cosmos-2242 3.2 04:49:34 11° SSW 04:53:38 56° W 04:57:54 10° N
Resurs 1-4 Rocket 3.3 04:51:08 10° N 04:55:28 27° WNW 04:59:22 12° WSW
MOZ.5/SAFIR/RUBIN 5/SL-8 3.8 04:54:32 10° S 04:59:13 63° W 05:03:53 10° NNW
Cosmos 990 Rocket 4.5 04:54:30 10° NW 04:59:23 40° WSW 05:04:15 10° S
CZ-4B R/B 3.2 04:55:48 10° N 05:01:22 73° WNW 05:06:48 10° SSW
Meteor 1-21 Rocket 4.3 04:57:08 10° NNW 05:03:02 75° W 05:08:56 10° S
CZ-4B R/B 2.8 04:59:47 10° N 05:03:48 69° WNW 05:07:35 10° SSW
Cosmos 1733 4.3 05:00:16 10° SSE 05:03:53 45° E 05:07:32 10° NNE
Cosmos 1842 Rocket 3.6 05:01:50 10° S 05:06:18 87° W 05:10:49 10° N
PSLV R/B 4.1 05:03:21 10° NNE 05:07:32 59° E 05:11:43 10° S
Cosmos 2227 4.4 05:03:29 10° NNW 05:09:17 85° ENE 05:15:02 10° SSE
ISS -2.4 05:06:23 10° NW 05:09:35 52° NE 05:12:46 10° ESE
Cosmos 1634 Rocket 4.4 05:04:59 10° SSW 05:10:56 47° WNW 05:16:59 10° N
Cosmos 2026 Rocket 4.1 05:05:29 10° NNW 05:11:47 67° W 05:17:58 10° S
CZ-3A R/B 4.0 05:02:26 10° WSW 05:13:24 41° NW 05:17:38 10° NNE
GPS 2-04 Rocket1 3.0 05:10:38 10° WSW 05:14:21 45° S 05:17:52 10° ESE
Cosmos 332 Rocket 3.9 05:11:57 10° SSW 05:16:45 85° ESE 05:21:36 10° NNE
Cosmos 1125 Rocket 3.5 05:14:26 10° NNW 05:19:37 66° WSW 05:24:44 10° S
ASTRO E2 4.2 05:18:26 10° WSW 05:21:34 22° S 05:24:42 10° SE
Cosmos 372 Rocket 4.1 05:20:44 10° NNW 05:25:52 83° ENE 05:30:57 10° SSE
